Location: ??????
(30.0081°N, 31.2109°E)
Time: 07:30:39
(UTC+00:00)

ASTEX 1 - Pass Details

Date: 03 March 2021
Orbit: 720 x 743 km, 92.7° (Epoch: 15 April)

Event Time Altitude Azimuth Distance (km) Brightness Sun altitude
Rises 17:45:31 0° 7° (N) 3,135 6.7 -24.5°
Reaches altitude 10° 17:47:49 10° 8° (N) 2,210 5.9 -25.0°
Enters shadow 17:50:41 36° 12° (NNE) 1,133 4.3 -25.7°
